Location: Batang Balui
(2.7000°N, 113.7833°E)
Time: 18:46:14
(UTC+00:00)

XW-2D - Visible Passes

Search period start: 28 March 2023 00:00
Search period end: 07 April 2023 00:00
Orbit: 479 x 498 km, 97.5° (Epoch: 28 March)

Date Brightness Start Highest point End Pass type
(mag) Time Alt. Az. Time Alt. Az. Time Alt. Az.
28 Mar ? 10:47:11 10° SSW 10:50:14 26° W 10:53:15 10° NW visible
30 Mar ? 21:47:57 10° NE 21:50:55 24° E 21:53:54 10° SSE visible
31 Mar ? 11:13:06 10° WSW 11:14:04 11° W 11:15:00 10° W visible
31 Mar ? 21:27:10 10° E 21:27:44 10° E 21:28:17 10° ESE visible
01 Apr ? 10:47:49 10° SSW 10:50:50 25° W 10:53:50 10° NW visible
03 Apr ? 21:48:08 10° NE 21:51:06 24° ESE 21:54:05 10° SSE visible
04 Apr ? 11:13:11 10° WSW 11:14:08 11° W 11:15:05 10° W visible
04 Apr ? 21:27:15 10° E 21:27:44 10° E 21:28:12 10° ESE visible
05 Apr ? 10:47:43 10° SSW 10:50:44 26° W 10:53:44 10° NW visible
